Location: Unspecified
(52.4292°N, 19.3359°E)
Time: 23:04:02
(UTC+02:00)

SR - Pass Details

Date: 31 May 2024
Orbit: 580 x 858 km, 66.7° (Epoch: 12 June)

Event Time Altitude Azimuth Distance (km) Brightness Sun altitude
Rises 19:51:13 0° 288° (WNW) 3,042 ? 7.2°
Reaches altitude 10° 19:54:36 10° 313° (NW) 2,068 ? 6.8°
Maximum altitude 19:57:14 15° 347° (NNW) 1,728 ? 6.4°
Drops below altitude 10° 19:59:47 10° 22° (NNE) 1,989 ? 6.1°
Sets 20:02:56 0° 47° (NE) 2,855 ? 5.7°
